OBJECT G, 56749

Orbit data source: Space-Track

You're viewing an Uncataloged Satellite

Recently launched and/or uncataloged satellites may have evolving metadata. Metadata may include but not limited to: Owner, Maufacturer, Bus, Motor, and Mission.

OBJECT G, 56749 is a South Korean satellite in SSO that was launched on Thu, 25 May 2023 UTC via an NURI launch vehicle from the Naro Space Center, South Korea (NSC). Unknown objects in Earth's orbit typically refer to objects detected orbiting the Earth but have not yet been identified or cataloged. These objects could be anything from previously untracked satellites, spent rocket stages, debris from satellite collisions, or even natural meteoroids temporarily captured by Earth's gravity.

Loading next visibility...
Identifier
56749, 2023-072G
Orbit
SSO
Country
Flag of KRKR / SKOR
Related business
None
Manufacturer
Unknown
Mission
Operational Commercial Technology
Bus & Motor
Unknown
Mass
Unknown
Launch date (UTC)
2023-05-25 (3 years ago)
Launch vehicle
NURI
Launch site
Naro Space Center, South Korea (NSC)
Object type
Unknown
Shape & HBR
Box, 0.1 m
Radar Cross Section
0.035 m², Medium (>0.1 m² and < 1m²)

Expand to show TLE details & history
Last TLE update: 9 hours ago

TLE from 9 hours ago
0 OBJECT G
1 56749U 23072G   26126.27645801  .00023741  00000-0  45033-3 0  9990
2 56749  97.4948 332.5303 0005294 127.3036 232.8697 15.48306332163973
Epoch: 2026-05-06T06:38Z
TLE epoch observation values (Epoch: 2026-05-06T06:38:05.972Z)
Latitude
-0.00004°
Longitude
8.86615°
Altitude
426.981 km
Speed
7.654 km/s
True Right ascension
22h 10m 07s
True Declination
0° 00' 00"
Sunlit
Object was in daylight at epoch
Visualization orbit readout
Latitude
Unknown
Longitude
Unknown
Altitude
Unknown
Speed
Unknown
Apparent Right ascension
Unknown
Apparent Declination
Unknown
Sunlit
N/A
Visualization observer readout
Local Sidereal Time
23:35:51
Azimuth
Unknown
Elevation
Unknown
Doppler factor
Unknown
Orbital elements
Apogee altitude
422.211 km
Perigee altitude
415.014 km
Semi-major axis
6,796.749 km
Eccentricity
0.00053
Inclination
97.4948°
RAAN
332.5303°
Arg. of periapsis
127.3036°
True anomaly
232.82135°
Mean anomaly
232.8697°
Eccentric anomaly
232.84552°
Mean motion
3.87339 °/min
Orbital period
92.94 mins
BSTAR
0.00045033
Loading maneuver chart data...
Computing Atmospheric mass density...
Loading historical data...
Loading historical data...
Loading historical data...
Loading historical data...
Loading historical data...
Loading historical data...
Loading historical data...

Documentation

Showing up to 5 results
|